Location: Archemont
(49.1579°N, 1.7598°E)
Time: 10:04:17
(UTC+00:00)

Altair - Pass Details

Date: 19 April 2024
Orbit: 1501 x 1682 km, 47.2° (Epoch: 17 May)

Event Time Altitude Azimuth Distance (km) Brightness Sun altitude
Rises 00:27:53 0° 286° (WNW) 4,834 10.2 -29.0°
Reaches altitude 10° 00:31:07 10° 282° (WNW) 3,821 9.6 -29.0°
Maximum altitude 00:40:24 54° 209° (SSW) 1,834 7.4 -28.6°
Enters shadow 00:40:43 54° 202° (SSW) 1,835 7.4 -28.6°
Drops below altitude 10° 00:49:20 10° 135° (SE) 3,683 - -28.3°
Sets 00:52:24 0° 131° (SE) 4,648 - -28.1°
